Date,TemperatureHighF,TemperatureAvgF,TemperatureLowF,DewpointHighF,DewpointAvgF,DewpointLowF,HumidityHigh,HumidityAvg,HumidityLow,PressureMaxIn,PressureMinIn,WindSpeedMaxMPH,WindSpeedAvgMPH,GustSpeedMaxMPH,PrecipitationSumIn
2013-1-1,34.5,20.9,13.1,22.5,16.0,10.6,99,83,50,28.79,28.64,0,-7,0,0.00
2013-1-2,39.0,24.4,11.8,29.1,20.5,9.7,99,86,67,28.74,28.59,16,-1,16,0.02
2013-1-3,44.8,30.5,23.2,32.5,26.7,22.3,99,87,60,28.90,28.73,8,-8,8,0.06
2013-1-4,48.2,31.5,18.0,33.1,26.6,17.6,99,83,56,28.89,28.72,16,-3,16,0.00
2013-1-5,47.7,36.7,29.8,38.8,32.5,26.8,92,85,70,28.73,28.55,17,6,17,0.00
2013-1-6,50.0,32.0,21.9,28.8,24.7,20.8,98,76,42,28.87,28.65,11,3,11,0.00
2013-1-7,54.7,38.2,27.7,34.2,28.4,23.5,86,69,46,28.78,28.53,17,6,17,0.00
2013-1-8,59.2,44.4,34.2,40.6,35.9,30.7,93,74,49,28.69,28.45,19,7,19,0.00
2013-1-9,59.9,44.0,31.6,42.8,36.4,31.1,99,77,49,28.91,28.68,10,-4,10,0.00
2013-1-10,50.4,44.3,38.5,50.0,42.1,33.3,99,93,64,28.82,28.23,18,4,19,0.37
2013-1-11,61.5,55.0,49.5,54.7,51.6,39.0,99,89,51,28.25,28.09,24,8,24,0.24
2013-1-12,57.0,30.5,21.6,37.9,21.5,14.0,94,70,44,28.59,28.24,21,6,21,0.00
2013-1-13,35.2,20.5,12.0,15.8,10.8,7.9,83,67,42,28.83,28.53,14,4,14,0.00
2013-1-14,40.5,21.6,9.7,17.1,11.1,6.3,90,67,31,28.97,28.83,10,-67,10,0.00
2013-1-15,42.3,24.1,13.3,21.2,13.4,9.7,95,67,32,28.87,28.65,8,-16,8,0.00
2013-1-16,51.3,33.2,17.8,33.8,24.0,12.7,86,70,49,28.67,28.51,15,4,15,0.00
2013-1-17,58.6,39.1,28.2,37.2,32.2,28.0,99,79,44,28.95,28.67,11,-28,11,0.00
2013-1-18,59.4,44.6,33.1,38.7,34.6,30.7,93,70,45,28.89,28.51,25,10,34,0.00
2013-1-19,67.3,50.3,41.4,41.0,36.0,31.3,82,60,35,28.74,28.47,20,6,20,0.00
2013-1-20,43.3,31.2,20.1,32.5,15.8,10.2,79,53,35,28.87,28.73,15,5,15,0.00
2013-1-21,25.7,18.8,14.2,14.5,8.3,2.8,88,65,40,28.91,28.82,12,4,12,0.00
2013-1-22,34.2,21.7,13.5,13.8,9.5,5.2,73,60,42,28.87,28.72,11,4,11,0.00
2013-1-23,55.0,32.3,14.0,31.6,20.4,10.2,87,64,39,28.89,28.64,15,0,15,0.00
2013-1-24,28.8,21.5,9.7,17.1,8.9,2.1,73,58,43,28.97,28.63,15,7,15,0.00
2013-1-25,55.6,35.3,21.0,29.1,20.5,12.7,71,56,35,28.72,28.61,9,-29,9,0.00
2013-1-26,61.3,43.9,30.0,34.3,29.2,24.4,81,58,35,28.78,28.56,14,-20,16,0.00
2013-1-27,64.8,51.5,40.3,62.8,50.4,30.6,99,96,57,28.58,28.24,21,8,21,0.12
2013-1-28,77.0,66.6,59.9,67.8,63.9,55.2,99,92,67,28.36,28.14,23,7,23,0.00
2013-1-29,70.3,49.1,36.0,67.8,48.8,35.8,99,99,99,28.15,27.93,23,6,23,1.28
2013-1-30,43.0,27.6,21.4,36.0,25.4,18.9,99,91,80,28.46,27.99,11,1,15,0.02
2013-1-31,27.0,18.8,7.5,23.5,12.9,2.5,99,78,54,28.95,28.42,0,0,0,0.00
2013-2-1,28.2,18.6,5.7,18.5,10.8,1.8,87,72,55,28.93,28.62,0,-4,0,0.00
2013-2-2,57.7,38.8,24.8,44.4,31.0,18.3,86,74,59,28.71,28.56,12,3,12,0.00
2013-2-3,53.4,42.2,32.0,36.5,30.3,-7.1,94,65,37,28.77,28.34,12,4,14,0.00
2013-2-4,53.6,41.4,23.9,38.5,32.3,23.7,99,72,55,28.48,28.27,55,1,55,0.00
2013-2-5,66.4,41.2,23.0,43.3,32.2,22.8,99,74,40,28.59,28.38,11,-17,11,0.00
2013-2-6,65.3,48.8,31.5,48.6,39.4,27.7,92,72,50,28.59,28.36,16,2,16,0.00
2013-2-7,58.6,44.2,32.0,58.3,43.4,31.8,99,97,79,28.68,28.35,15,-6,15,0.81
2013-2-8,51.8,35.4,29.7,37.6,32.3,29.5,99,90,57,28.82,28.68,17,5,17,0.13
2013-2-9,52.2,37.5,29.1,42.1,35.1,28.9,99,92,66,28.71,28.23,17,8,17,0.06
2013-2-10,53.8,45.3,37.2,51.4,38.6,28.0,99,79,55,28.40,27.97,27,12,27,0.07
2013-2-11,54.1,40.1,31.1,33.8,29.0,24.6,88,66,43,28.65,28.40,17,5,17,0.00
2013-2-12,44.6,35.1,25.2,34.5,28.2,22.3,99,77,57,28.66,28.43,6,-54,6,0.00
2013-2-13,60.3,43.6,28.2,36.5,31.0,27.1,97,64,37,28.44,28.29,15,1,15,0.00
2013-2-14,53.2,43.3,35.2,38.3,32.3,26.1,86,66,47,28.66,28.32,12,4,17,0.00
2013-2-15,43.7,31.9,21.6,30.0,19.9,13.5,99,64,34,28.85,28.65,19,-6,19,0.00
2013-2-16,36.3,29.3,18.5,28.4,24.2,18.3,99,82,61,28.79,28.54,14,-28,14,0.01
2013-2-17,62.1,45.3,26.6,41.9,33.5,24.3,93,65,47,28.54,28.17,15,5,15,0.00
2013-2-18,54.5,44.1,28.2,52.7,37.4,20.3,99,78,55,28.57,28.04,21,8,21,0.05
2013-2-19,42.6,29.3,21.9,20.8,14.4,5.9,88,57,27,28.83,28.56,14,4,16,0.00
2013-2-20,26.8,21.7,16.0,17.2,10.7,3.7,77,62,49,28.85,28.64,11,5,13,0.00
2013-2-21,26.8,23.7,20.5,26.6,22.2,16.7,99,94,77,28.65,28.22,23,6,23,0.00
2013-2-22,36.0,24.8,15.6,26.2,22.0,15.3,99,90,63,28.56,28.25,0,0,0,0.05
2013-2-23,43.9,25.1,9.5,26.2,19.0,9.3,99,80,48,28.55,28.41,11,-2,11,0.01
2013-2-24,55.2,35.2,17.6,35.4,27.5,17.4,99,76,47,28.50,28.38,15,0,15,0.00
2013-2-25,43.2,33.9,29.5,43.0,31.2,27.3,99,90,77,28.45,28.12,21,6,21,0.07
2013-2-26,37.4,32.9,30.7,36.9,32.7,29.3,99,99,99,28.32,28.03,15,-543,17,0.00
2013-2-27,40.5,32.6,28.8,33.4,30.4,28.4,99,92,71,28.52,28.30,14,-534,14,0.00
2013-2-28,35.2,31.3,28.4,32.0,29.6,27.5,98,94,82,28.67,28.51,17,5,17,0.00
2013-3-1,37.6,28.3,24.1,29.7,26.1,20.8,98,92,69,28.77,28.63,13,4,13,0.05
2013-3-2,45.5,30.0,23.4,26.6,22.9,19.8,99,77,46,28.82,28.65,9,3,9,0.07
2013-3-3,47.7,35.8,23.9,33.4,28.4,21.9,93,75,57,28.66,28.22,15,6,16,0.00
2013-3-4,60.6,43.2,35.1,42.6,35.5,32.0,99,76,50,28.43,28.14,18,6,18,0.01
2013-3-5,42.8,33.5,27.1,34.9,26.0,21.4,99,75,55,28.81,28.43,18,7,20,0.04
2013-3-6,48.4,33.2,23.4,28.9,24.0,19.9,90,71,46,28.88,28.74,14,4,14,0.00
2013-3-7,51.3,37.0,23.9,36.7,29.7,22.3,96,76,55,28.76,28.58,15,6,15,0.00
2013-3-8,59.9,48.0,36.5,47.1,40.4,32.4,86,75,57,28.68,28.45,17,7,17,0.00
2013-3-9,62.2,52.8,46.4,56.3,50.9,44.2,99,94,75,28.45,28.08,15,-2,15,0.44
2013-3-10,55.9,41.1,27.3,54.5,40.8,27.1,99,99,99,28.37,28.03,15,3,15,0.05
2013-3-11,42.4,30.6,25.3,30.0,26.6,24.1,99,86,56,28.50,28.32,12,-27,12,0.00
2013-3-12,52.9,38.5,29.3,35.8,28.8,25.3,95,70,42,28.80,28.47,17,-6,17,0.00
2013-3-13,53.8,36.4,23.7,30.7,26.2,23.2,98,69,38,28.94,28.77,11,3,11,0.00
2013-3-14,80.1,53.5,34.9,52.7,39.3,27.1,76,60,38,28.78,28.50,22,-34,22,0.00
2013-3-15,85.5,62.2,42.8,59.7,49.7,38.3,91,66,41,28.55,28.12,19,-41,19,0.00
2013-3-16,63.3,45.2,37.2,51.8,39.9,31.8,99,82,65,28.54,28.15,22,8,22,0.00
2013-3-17,37.6,34.1,32.5,34.3,32.6,29.5,99,94,81,28.54,28.22,16,6,16,0.13
2013-3-18,59.2,43.5,34.0,43.2,33.1,21.2,99,71,34,28.53,28.21,18,-280,18,0.52
2013-3-19,40.6,34.3,29.1,40.5,28.7,19.2,99,81,54,28.71,28.51,0,-999,0,0.07
2013-3-20,45.9,34.0,24.8,34.5,19.5,10.8,99,59,31,28.85,28.58,0,-999,0,0.01
2013-3-21,28.9,26.6,22.6,28.6,21.6,13.8,99,83,60,28.59,28.37,0,-999,0,0.00
2013-3-22,34.0,31.5,28.9,33.8,31.3,28.8,99,99,99,28.48,28.39,0,-999,0,0.02
2013-3-23,39.4,34.2,32.4,35.8,33.2,32.2,99,96,78,28.50,28.30,0,-999,0,0.00
2013-3-24,33.1,29.3,22.8,32.7,28.9,20.8,99,98,92,28.54,28.27,0,-999,0,0.00
2013-3-25,37.9,28.4,20.7,32.5,26.4,20.1,99,93,74,28.79,28.51,0,-999,0,0.04
2013-3-26,46.6,32.1,20.5,30.2,25.0,20.3,99,78,48,28.87,28.74,0,-999,0,0.17
2013-3-27,53.6,38.1,23.2,40.5,31.7,22.8,99,80,55,28.77,28.64,0,-999,0,0.00
2013-3-28,73.8,53.7,36.3,51.1,43.1,35.2,98,70,45,28.68,28.57,0,-999,0,0.00
2013-3-29,72.5,57.2,42.1,53.4,46.8,41.9,99,72,42,28.67,28.54,0,-999,0,0.00
2013-3-30,72.0,58.1,51.3,64.2,56.1,50.9,99,94,71,28.55,28.32,0,-999,0,0.06
2013-3-31,72.0,58.2,44.4,54.9,47.1,34.9,99,70,37,28.45,28.38,0,-999,0,0.01
2013-4-1,53.6,43.1,33.8,38.7,26.7,17.2,94,55,31,28.74,28.45,0,-999,0,0.00
2013-4-2,57.2,41.5,29.5,30.2,24.8,20.3,73,53,34,28.79,28.69,0,-999,0,0.00
2013-4-3,56.3,43.0,32.5,33.1,27.4,22.6,80,55,39,28.82,28.69,0,-999,0,0.00
2013-4-4,71.1,52.7,37.4,39.0,32.1,23.0,67,47,28,28.70,28.51,0,-999,0,0.00
2013-4-5,73.8,57.9,37.8,52.0,44.0,33.3,95,61,44,28.64,28.32,0,-999,0,0.00
2013-4-6,82.0,64.7,56.3,59.4,51.2,43.5,76,63,39,28.33,28.12,0,-999,0,0.00
2013-4-7,75.2,61.6,47.1,61.7,53.9,45.1,99,78,52,28.33,28.12,0,-999,0,0.24
2013-4-8,77.2,66.0,56.5,71.4,64.9,56.1,99,96,81,28.19,28.13,0,-999,0,0.05
2013-4-9,74.5,68.0,56.8,71.1,67.2,56.3,99,98,89,28.24,28.10,0,-999,0,0.13
2013-4-10,56.3,42.9,36.9,55.6,42.7,36.7,99,99,99,28.40,28.17,0,-999,0,0.79
2013-4-11,43.9,37.1,33.8,36.5,33.4,30.6,99,87,69,28.29,28.18,0,-999,0,0.00
2013-4-12,58.6,42.2,31.3,41.9,35.4,30.4,99,79,50,28.50,28.24,0,-999,0,0.00
2013-4-13,69.6,52.1,32.0,54.1,44.2,31.8,99,77,55,28.53,28.18,0,-999,0,0.00
2013-4-14,77.0,63.8,54.0,63.7,55.3,43.3,99,75,58,28.20,27.96,0,-999,0,0.12
2013-4-15,57.0,49.9,43.9,48.9,41.9,37.0,99,75,57,28.48,28.21,0,-999,0,0.14
2013-4-16,48.2,45.0,42.6,43.5,39.0,36.1,93,80,64,28.61,28.46,0,-999,0,0.00
2013-4-17,54.0,49.2,45.5,53.6,48.8,43.5,99,99,93,28.54,28.11,0,-999,0,0.28
2013-4-18,48.0,40.5,36.5,47.8,39.1,32.2,99,95,81,28.41,28.03,0,-999,0,0.31
2013-4-19,57.2,43.5,32.2,35.8,31.8,28.8,95,66,38,28.58,28.38,0,-999,0,0.00
2013-4-20,60.3,46.8,30.0,43.0,35.1,26.2,95,65,48,28.72,28.57,0,-999,0,0.00
2013-4-21,74.3,58.0,46.9,53.2,46.1,37.9,84,66,45,28.70,28.57,0,-999,0,0.00
2013-4-22,70.3,57.6,48.4,55.4,50.0,45.0,99,77,55,28.62,28.38,0,-999,0,0.02
2013-4-23,51.3,37.0,34.0,50.7,36.8,33.8,99,99,94,28.65,28.48,0,-999,0,0.64
2013-4-24,58.5,43.9,28.9,39.9,35.0,28.8,99,74,47,28.73,28.62,0,-999,0,0.02
2013-4-25,73.0,55.8,36.5,50.2,43.9,36.0,99,68,41,28.78,28.61,0,-999,0,0.00
2013-4-26,57.0,51.7,48.4,53.8,49.8,45.1,99,94,70,28.70,28.61,0,-999,0,0.40
2013-4-27,57.6,51.4,47.5,57.0,51.1,47.3,99,99,97,28.67,28.47,0,-999,0,0.27
2013-4-28,79.9,61.7,43.2,66.7,56.8,43.0,99,86,56,28.48,28.27,0,-999,0,0.01
2013-4-29,88.5,72.4,58.1,74.3,66.5,57.7,99,83,60,28.30,28.12,0,-999,0,0.00
2013-4-30,86.7,75.5,64.6,67.5,63.1,56.7,97,67,49,28.31,28.14,0,-999,0,0.00
2013-5-1,87.8,68.7,43.3,72.5,60.3,43.2,99,76,54,28.64,28.30,0,-999,0,0.05
2013-5-2,43.2,37.7,32.7,43.0,37.5,32.5,99,99,99,28.84,28.63,0,-999,0,0.43
2013-5-3,41.0,37.2,33.3,40.8,36.8,33.1,99,99,94,28.77,28.37,0,-999,0,0.45
2013-5-4,51.4,41.7,33.3,47.7,40.9,33.1,99,97,84,28.49,28.30,0,-999,0,0.14
2013-5-5,60.6,50.9,44.2,58.3,50.4,44.1,99,98,89,28.58,28.46,0,-999,0,0.02
2013-5-6,77.4,58.9,50.5,65.7,56.1,50.2,99,92,65,28.57,28.47,0,-999,0,0.00
2013-5-7,83.7,65.6,46.9,67.1,56.8,46.8,99,77,45,28.56,28.44,0,-999,0,0.00
2013-5-8,78.6,66.2,57.7,70.0,62.7,55.8,99,89,70,28.48,28.36,0,-999,0,0.06
2013-5-9,81.1,67.0,58.8,71.8,63.6,58.5,99,90,68,28.40,28.32,0,-999,0,0.07
2013-5-19,79.9,79.3,78.6,78.1,77.6,77.2,96,94,93,28.23,28.11,0,-999,0,0.00
2013-5-21,81.0,75.4,63.9,68.2,64.7,59.7,87,70,60,28.31,28.22,0,-999,0,0.00
2013-5-23,74.8,71.4,66.6,64.8,63.6,61.2,83,77,71,28.71,28.68,0,-999,0,0.00
2013-5-26,86.5,86.2,85.8,81.0,80.1,79.5,84,82,81,28.52,28.47,0,-999,0,0.00
2013-5-30,70.2,68.3,67.3,69.8,68.0,66.9,99,99,99,28.28,28.24,0,-999,0,0.00
2013-6-2,67.5,67.4,67.3,60.4,60.3,60.3,78,78,78,28.58,28.57,0,-999,0,0.00
2013-6-3,82.6,73.9,57.9,70.0,66.1,57.2,98,78,64,28.58,28.42,0,-999,0,0.00
2013-6-4,79.3,74.9,69.1,74.8,72.0,68.5,98,91,86,28.48,28.44,0,-999,0,0.00
2013-6-5,-200.0,0.0,188.1,99.9,99.9,99.9,0,0,100,0.00,40.00,0,0,0,0.00
2013-6-7,65.8,63.3,61.2,61.2,60.0,59.2,94,89,84,28.49,28.45,0,-999,0,0.00
2013-6-8,61.2,60.0,59.2,59.5,59.1,58.8,99,97,94,28.49,28.45,0,-999,0,0.00
2013-6-9,80.8,72.9,67.5,68.9,67.3,66.2,96,83,67,28.39,28.32,0,-999,0,0.00
2013-6-10,83.7,82.3,81.5,76.1,75.3,75.0,81,80,78,28.38,28.37,0,-999,0,0.00
2013-6-11,97.7,92.3,84.9,81.1,79.3,76.5,76,66,58,28.39,28.35,0,-999,0,0.00
2013-6-13,88.0,83.6,78.1,78.6,75.7,72.9,84,77,71,28.57,28.51,0,-999,0,0.00
2013-6-27,84.6,83.6,81.5,83.8,82.8,81.1,99,97,95,28.43,28.38,0,-999,0,0.00
2013-6-28,96.6,94.7,90.7,84.9,82.3,79.9,83,68,61,28.47,28.43,0,-999,0,0.00
2013-6-29,77.7,74.7,71.6,67.8,67.2,66.7,85,78,70,28.43,28.40,0,-999,0,0.00
2013-7-2,90.7,84.8,73.9,72.5,68.9,67.1,82,60,49,28.65,28.58,0,-989,0,0.00
2013-7-3,72.5,70.3,68.4,63.3,62.7,61.9,80,77,73,28.59,28.56,0,-999,0,0.00
2013-7-4,92.7,76.0,63.5,75.0,67.8,61.7,98,78,53,28.59,28.48,0,-999,0,0.00
2013-7-5,95.4,85.6,77.2,76.1,72.7,70.0,79,66,54,28.49,28.43,0,-999,0,0.00
2013-7-6,77.0,77.0,77.0,70.0,70.0,70.0,79,79,79,28.49,28.49,0,-999,0,0.00
2013-7-11,92.5,86.0,79.3,75.0,72.3,69.1,71,64,57,28.54,28.51,0,-999,0,0.00
2013-7-12,83.7,81.0,79.0,74.8,72.9,72.0,80,76,75,28.54,28.52,0,-999,0,0.00
2013-7-13,97.2,81.7,72.7,84.7,73.1,65.8,80,76,65,28.58,28.48,0,-999,0,0.00
2013-7-14,100.4,90.2,77.7,82.4,75.5,71.2,81,64,51,28.57,28.52,0,-999,0,0.00
2013-7-18,90.9,76.9,71.8,82.8,75.6,-25.4,99,96,77,28.74,28.67,0,-999,0,0.00
2013-7-27,36.1,36.1,36.1,36.0,36.0,36.0,99,99,99,28.41,28.41,0,-999,0,0.00
2013-7-28,48.6,48.6,48.6,47.1,47.1,47.1,95,95,95,28.40,28.40,0,-999,0,0.15
2013-7-31,92.7,86.6,77.7,82.9,80.3,76.3,99,82,71,28.64,28.55,0,-999,0,0.00
2013-8-3,85.5,82.7,77.4,85.1,82.3,77.0,99,99,99,28.60,28.56,0,-999,0,0.00
2013-8-10,90.1,84.1,71.8,82.9,79.6,71.4,99,87,75,28.72,28.62,0,-999,0,0.00
2013-8-11,92.1,86.0,77.4,83.1,81.1,77.0,99,86,75,28.61,28.54,0,-999,0,0.00
2013-8-12,90.3,85.1,74.3,85.3,81.9,73.9,99,91,81,28.57,28.48,0,-999,0,0.00